Rome Ciampino, Italy

1:27 PM CEST on April 25, 2017 (GMT +0200)
Ciampino

Weather History for LIRA - April, 2013

Change the Weather History Date:

Monday, April 15, 2013

  Actual Average Record
Temperature  
Mean Temperature 62 °F -  
Max Temperature 73 °F 69 °F 73 °F (2007)
Min Temperature 50 °F 49 °F 35 °F (2001)
Degree Days  
Heating Degree Days 4    
Growing Degree Days 12 (Base 50)    
Moisture  
Dew Point 50 °F    
Average Humidity 68    
Maximum Humidity 94    
Minimum Humidity 38    
Precipitation  
Precipitation 0.00 in 0.07 in - ()
Sea Level Pressure  
Sea Level Pressure 30.19 in    
Wind  
Wind Speed 3 mph ()    
Max Wind Speed 10 mph    
Max Gust Speed -    
Visibility 6.2 miles    
Events      
Averages and records for this station are not official NWS values.
T = Trace of Precipitation, MM = Missing Value Source: Averaged Metar Reports

Daily Weather History Graph

Daily Weather History Graph

Search for Another Location

Airport or City:

Trip Planner

Search our weather history database for the weather conditions in past years. The results will help you decide how hot, cold, wet, or windy it might be!

Date:

Astronomy

Apr. 15, 2013 Rise Set
Actual Time 6:29 AM CEST 7:50 PM CEST
Civil Twilight 6:00 AM CEST 8:19 PM CEST
Nautical Twilight 5:26 AM CEST 8:54 PM CEST
Astronomical Twilight 4:49 AM CEST 9:31 PM CEST
Moon 9:38 AM CEST (4/15) No Moon Set
Length of Visible Light 14h 18m
Length of Day
13h 20m
Waxing Crescent, 22% of the Moon is Illuminated
Apr 15
Waxing Crescent
Apr 18
First Quarter
Apr 25
Full
May 2
Last Quarter
May 10
New

Hourly Weather History & Observations

Time (CEST) Temp. Dew Point Humidity Pressure Visibility Wind Dir Wind Speed Gust Speed Precip Events Conditions
12:15 AM 59.0 °F 46.4 °F 63% 30.24 in - SSE 2.3 mph - N/A   Clear
12:45 AM 57.2 °F 46.4 °F 67% 30.24 in - ENE 1.2 mph - N/A   Clear
1:15 AM 55.4 °F 48.2 °F 77% 30.24 in - Calm Calm - N/A   Clear
1:45 AM 55.4 °F 48.2 °F 77% 30.24 in - Calm Calm - N/A   Clear
2:15 AM 55.4 °F 46.4 °F 72% 30.24 in - ESE 2.3 mph - N/A   Clear
2:45 AM 53.6 °F 46.4 °F 77% 30.24 in - Calm Calm - N/A   Clear
3:15 AM 53.6 °F 44.6 °F 72% 30.24 in - Calm Calm - N/A   Clear
3:45 AM 53.6 °F 46.4 °F 77% 30.24 in - NE 2.3 mph - N/A   Clear
4:15 AM 53.6 °F 48.2 °F 82% 30.24 in - NE 2.3 mph - N/A   Clear
4:45 AM 51.8 °F 48.2 °F 88% 30.24 in - ENE 2.3 mph - N/A   Clear
5:15 AM 51.8 °F 46.4 °F 82% 30.24 in - Calm Calm - N/A   Clear
5:45 AM 50.0 °F 48.2 °F 94% 30.21 in - Calm Calm - N/A   Clear
6:15 AM 50.0 °F 46.4 °F 87% 30.21 in - NNE 1.2 mph - N/A   Clear
6:45 AM 50.0 °F 46.4 °F 87% 30.21 in - NE 2.3 mph - N/A   Clear
7:15 AM 53.6 °F 50.0 °F 88% 30.21 in - ENE 1.2 mph - N/A   Clear
7:45 AM 53.6 °F 50.0 °F 88% 30.24 in - NNE 2.3 mph - N/A   Clear
8:15 AM 57.2 °F 51.8 °F 82% 30.21 in - NE 2.3 mph - N/A   Clear
8:45 AM 59.0 °F 51.8 °F 77% 30.21 in 6.2 mi North 1.2 mph - N/A   Partly Cloudy
9:15 AM 60.8 °F 50.0 °F 68% 30.21 in 6.2 mi NE 2.3 mph - N/A   Partly Cloudy
9:45 AM 62.6 °F 51.8 °F 68% 30.21 in - North 2.3 mph - N/A   Clear
10:15 AM 64.4 °F 51.8 °F 64% 30.21 in - North 3.5 mph - N/A   Clear
10:45 AM 68.0 °F 50.0 °F 52% 30.21 in - NW 3.5 mph - N/A   Clear
11:15 AM 68.0 °F 50.0 °F 52% 30.21 in - Calm Calm - N/A   Clear
11:45 AM 69.8 °F 51.8 °F 53% 30.21 in 6.2 mi WSW 4.6 mph - N/A   Partly Cloudy
12:15 PM 71.6 °F 51.8 °F 50% 30.21 in 6.2 mi WSW 3.5 mph - N/A   Partly Cloudy
12:45 PM 73.4 °F 51.8 °F 47% 30.21 in 6.2 mi South 6.9 mph - N/A   Partly Cloudy
1:15 PM 73.4 °F 50.0 °F 44% 30.18 in 6.2 mi SW 6.9 mph - N/A   Partly Cloudy
1:45 PM 73.4 °F 50.0 °F 44% 30.18 in 6.2 mi SSW 8.1 mph - N/A   Partly Cloudy
2:15 PM 73.4 °F 48.2 °F 41% 30.18 in 6.2 mi SW 9.2 mph - N/A   Partly Cloudy
2:45 PM 73.4 °F 46.4 °F 38% 30.15 in 6.2 mi SW 8.1 mph - N/A   Partly Cloudy
3:15 PM 73.4 °F 46.4 °F 38% 30.15 in 6.2 mi SSW 9.2 mph - N/A   Partly Cloudy
3:45 PM 73.4 °F 48.2 °F 41% 30.15 in - SW 9.2 mph - N/A   Clear
4:15 PM 71.6 °F 48.2 °F 43% 30.12 in - SSW 8.1 mph - N/A   Clear
4:45 PM 69.8 °F 48.2 °F 46% 30.12 in - SSW 8.1 mph - N/A   Clear
5:15 PM 69.8 °F 48.2 °F 46% 30.12 in - SSW 8.1 mph - N/A   Clear
5:45 PM 68.0 °F 51.8 °F 56% 30.15 in - South 10.4 mph - N/A   Clear
6:15 PM 68.0 °F 51.8 °F 56% 30.15 in - SW 8.1 mph - N/A   Clear
6:45 PM 66.2 °F 55.4 °F 68% 30.12 in - SSW 8.1 mph - N/A   Clear
7:15 PM 64.4 °F 55.4 °F 73% 30.12 in - SW 6.9 mph - N/A   Clear
7:45 PM 62.6 °F 55.4 °F 77% 30.12 in - SSW 5.8 mph - N/A   Clear
8:15 PM 60.8 °F 57.2 °F 88% 30.12 in - SW 3.5 mph - N/A   Clear
8:45 PM 60.8 °F 57.2 °F 88% 30.15 in - SSW 5.8 mph - N/A   Clear
9:15 PM 59.0 °F 57.2 °F 94% 30.15 in - South 5.8 mph - N/A   Clear
9:45 PM 59.0 °F 55.4 °F 88% 30.15 in - SSE 4.6 mph - N/A   Clear
10:15 PM 59.0 °F 53.6 °F 82% 30.15 in - Calm Calm - N/A   Clear
10:45 PM 57.2 °F 51.8 °F 82% 30.15 in - SW 3.5 mph - N/A   Clear
11:15 PM 59.0 °F 51.8 °F 77% 30.15 in - SW 4.6 mph - N/A   Clear
11:45 PM 55.4 °F 50.0 °F 82% 30.15 in - SW 4.6 mph - N/A   Clear